Theta_e
325 325 325 324 324 324 324 323 323 323 323 322 322 321 321 321 321 321 321 321 320 320 320 320 320 320 319 319 319 320 320 320 320 320 320 319 319 319 318 318 319 318 318 318 318 318 318 318 318 318 318 317 317 317 317 317 317 316 316 316 317 316 316 316 316 316 315 315 316
325 324 325 324 325 325 324 323 323 323 323 323 323 322 321 321 321 321 321 320 321 321 321 320 320 320 319 319 320 320 320 319 319 319 319 319 319 319 319 319 319 319 318 318 318 318 318 318 318 318 318 317 317 317 317 318 318 317 317 317 317 317 316 317 316 316 316 316 316
325 325 325 325 324 324 324 323 323 322 322 322 322 322 322 322 321 321 321 321 321 320 320 321 320 320 319 320 320 320 320 320 319 319 319 319 319 319 319 319 319 319 319 318 318 318 318 318 318 318 318 318 317 317 317 318 317 317 317 317 317 317 317 318 317 317 317 317 316
324 325 324 324 324 323 323 323 322 322 322 322 322 322 322 322 322 322 321 321 321 321 320 320 320 320 320 320 320 320 320 320 320 319 319 319 319 319 319 319 318 318 318 318 318 318 318 318 319 318 318 317 317 318 318 318 318 318 318 317 318 318 318 318 317 317 317 317 316
324 324 324 324 323 323 323 323 322 322 322 322 323 322 322 322 321 321 321 321 320 321 321 320 321 321 321 320 320 320 320 320 320 320 320 319 319 319 319 319 319 318 318 319 318 319 319 318 319 319 318 318 318 318 318 318 317 318 318 318 318 318 318 318 317 317 317 317 316
324 324 324 325 324 324 323 323 322 322 322 322 322 322 322 321 321 321 321 320 321 321 321 321 321 320 320 320 320 320 320 320 320 320 320 319 319 319 319 319 319 319 319 319 319 319 319 319 319 319 318 318 318 318 317 317 317 317 317 317 318 317 317 317 317 316 316 316 315
324 324 324 324 324 324 323 323 323 323 322 322 321 321 321 321 321 320 320 320 320 320 320 321 321 320 320 320 320 321 321 321 321 320 320 320 320 319 320 319 320 319 319 319 319 319 319 319 319 319 319 318 319 318 318 318 318 317 317 317 317 318 317 317 317 317 316 315 315
324 324 324 324 324 323 323 322 322 322 322 322 321 321 321 321 321 320 320 320 320 321 321 321 320 320 320 320 321 321 321 321 321 320 320 320 320 320 320 320 320 320 320 320 320 320 320 320 319 319 319 319 319 318 318 318 317 317 317 317 317 317 317 317 317 316 316 316 315
323 323 323 323 323 323 322 322 322 322 321 321 321 321 321 320 320 320 320 320 321 320 320 321 321 320 320 320 320 320 321 321 321 321 321 321 320 320 320 320 320 320 320 321 320 320 320 320 320 320 319 319 319 318 318 317 318 317 317 317 316 316 316 317 317 317 316 316 316
321 321 321 321 322 322 322 322 321 321 321 321 321 321 321 321 320 320 320 320 320 320 321 321 321 321 320 320 320 320 320 320 321 321 321 321 321 321 320 321 320 320 321 321 321 320 320 321 320 320 320 320 318 318 318 318 318 317 317 318 317 316 316 318 318 318 317 317 316
320 320 321 321 321 321 321 321 321 321 321 321 320 321 320 320 320 320 321 321 321 321 320 321 321 321 320 320 320 320 320 320 320 320 320 321 321 321 321 321 321 320 321 321 321 321 321 321 320 320 320 319 319 318 318 318 318 317 317 317 317 316 317 317 318 319 318 317 316
320 320 320 321 321 321 321 321 321 321 321 320 320 320 320 321 321 321 321 321 321 320 321 321 320 320 320 320 320 320 320 320 320 320 320 320 321 321 321 321 320 320 320 321 321 321 321 320 320 320 319 319 320 319 319 318 318 317 317 317 317 316 316 316 318 319 319 318 317
319 320 320 320 321 321 321 321 320 320 320 320 320 320 320 321 321 321 321 320 321 321 321 321 320 320 320 320 320 320 321 321 320 320 320 320 320 320 321 321 320 320 321 321 321 321 321 321 320 320 319 320 320 319 319 318 318 317 317 316 316 316 316 317 317 318 318 318 317
319 320 320 320 321 320 321 320 320 320 320 320 320 320 321 321 321 321 321 321 321 321 321 321 320 321 321 321 321 321 321 321 320 320 320 320 320 321 321 321 321 321 321 321 321 321 321 321 320 320 319 319 319 319 319 318 318 318 317 317 316 317 317 318 318 318 318 317 317
319 319 320 320 320 320 320 320 320 320 320 320 320 320 321 321 321 321 321 321 321 321 321 321 321 321 321 321 321 321 321 321 321 321 321 320 321 321 321 321 321 321 321 321 321 321 321 321 321 320 320 319 319 319 319 319 319 319 318 318 317 317 318 318 318 317 317 316 316
319 319 320 320 320 320 320 320 320 320 320 320 321 321 321 321 322 321 321 321 321 321 321 321 321 321 321 321 322 322 322 321 321 321 321 321 321 321 321 321 321 321 321 321 321 321 321 321 321 321 320 320 319 319 319 319 319 319 318 318 319 319 319 318 318 317 317 316 315
319 319 319 319 319 320 320 319 320 320 320 320 321 321 321 321 322 321 321 321 321 321 321 321 321 322 321 321 322 322 322 321 321 321 321 321 321 321 321 321 321 321 321 321 321 321 321 321 321 321 320 320 320 319 319 319 319 319 318 318 319 319 319 318 318 317 317 316 315
319 319 319 319 319 319 320 320 320 320 320 320 321 321 321 321 321 321 321 320 321 321 321 321 321 321 321 321 322 322 322 321 321 321 321 321 321 321 321 320 320 321 321 321 321 320 320 320 320 321 321 320 320 320 320 319 319 319 318 318 318 318 318 319 318 318 317 316 315
319 319 319 319 319 319 319 320 320 320 321 321 321 321 321 321 321 320 320 320 321 321 321 320 320 321 321 321 321 321 321 321 321 321 321 321 321 321 320 320 320 320 320 320 320 320 320 320 320 320 320 320 320 321 320 320 319 319 318 317 317 317 317 318 318 318 317 317 316
319 319 319 319 319 320 320 320 320 320 321 321 321 321 320 320 320 320 320 320 320 320 320 320 320 320 321 321 321 320 321 321 321 321 321 321 321 320 320 320 320 319 319 319 319 319 319 319 320 320 320 319 320 320 320 320 319 318 318 317 317 317 318 318 318 317 317 317 316
316 317 318 318 319 320 320 320 321 321 321 321 321 320 320 320 320 320 320 320 320 321 320 320 320 320 320 320 320 320 320 320 320 320 320 320 320 320 320 319 319 319 319 318 318 318 318 319 319 319 319 319 319 319 319 318 318 317 317 318 318 318 318 318 318 318 318 317 316
313 313 314 314 315 315 315 316 317 319 320 321 321 321 321 321 321 321 321 321 321 321 321 320 320 321 320 320 320 320 319 320 319 319 319 319 319 319 319 319 319 319 318 317 318 318 318 318 318 317 317 317 318 318 318 317 316 316 316 318 318 319 318 318 318 318 318 317 316
311 311 312 312 312 312 313 313 314 314 315 316 316 317 318 319 320 321 321 322 321 321 321 321 321 321 321 320 320 320 320 319 319 319 319 319 319 319 319 319 319 318 318 317 317 317 317 317 316 315 315 315 316 316 316 316 316 316 317 318 318 318 318 317 317 317 317 316 316
311 311 311 312 312 312 312 312 313 313 313 313 313 313 314 314 315 315 316 316 316 317 318 318 319 319 319 319 319 319 319 319 318 318 318 318 318 318 318 318 318 317 317 317 316 316 316 316 315 314 314 314 315 316 316 315 316 316 317 317 317 316 316 316 316 316 316 316 315
311 311 311 311 312 312 312 312 312 312 312 312 312 313 313 313 313 313 313 313 313 313 313 314 314 315 315 316 316 316 317 317 317 316 316 317 317 317 317 317 317 316 316 316 315 315 315 316 316 315 314 315 315 316 315 315 316 316 316 316 316 315 315 314 314 315 315 314 314
311 311 311 312 311 312 312 312 312 312 312 313 313 313 313 313 313 313 312 312 312 312 312 312 312 312 312 313 313 313 314 314 315 315 314 314 315 315 315 315 315 315 315 314 314 314 316 316 316 315 314 314 315 314 314 315 315 315 315 316 315 315 314 313 312 313 314 313 313
312 312 312 312 312 311 311 311 312 312 312 313 313 313 313 313 313 313 312 312 311 311 311 311 311 311 311 311 312 312 311 312 312 312 313 313 313 313 313 313 314 314 315 313 314 315 316 316 315 314 313 313 314 314 314 314 314 314 313 314 313 313 313 313 312 313 313 313 312
313 312 313 312 312 312 312 313 312 312 312 312 312 312 312 313 312 312 312 311 311 311 311 311 311 311 311 311 311 311 311 310 311 311 311 311 312 312 312 313 314 314 314 313 314 315 315 315 315 314 313 312 312 312 312 313 313 312 312 312 312 312 313 313 313 312 312 312 310
313 313 313 313 313 313 314 313 313 313 313 313 313 313 313 313 312 312 311 311 311 311 311 311 312 312 311 311 311 311 310 311 310 311 311 311 311 312 312 313 314 312 311 312 314 315 315 315 314 314 313 311 310 310 311 312 312 312 312 312 312 312 312 311 311 311 311 310 308
313 313 313 313 313 313 314 314 314 314 314 314 314 314 313 313 312 312 312 312 312 312 312 313 313 312 311 311 311 311 311 311 311 312 312 312 312 312 313 313 312 311 310 311 313 314 314 314 314 314 313 312 310 310 310 311 312 312 312 313 312 311 310 310 310 309 309 307 306
312 313 313 313 313 313 313 314 314 314 315 315 315 315 315 314 314 315 314 314 314 314 314 314 314 313 312 312 312 312 312 312 313 313 313 313 313 314 313 311 310 309 309 310 312 312 313 313 313 313 313 312 310 310 312 313 314 314 314 312 311 310 309 309 308 307 306 305 304
312 312 312 312 312 313 313 314 315 315 316 316 316 316 317 316 316 316 316 316 315 315 315 314 313 313 313 313 313 313 314 314 315 315 315 315 314 313 312 309 308 307 308 309 310 311 311 311 312 312 312 311 310 312 313 314 314 313 313 312 310 309 307 307 306 305 304 304 303
312 312 312 312 312 313 314 316 316 316 316 316 316 316 316 316 316 316 317 317 316 316 316 316 316 316 316 315 315 315 315 315 316 316 316 315 314 312 310 308 307 307 307 309 309 310 310 311 311 311 311 310 311 312 312 313 313 312 311 309 307 306 304 303 302 302 302 302 302
313 313 312 312 312 313 315 316 316 315 315 315 315 316 316 316 316 317 318 318 318 317 317 316 316 315 314 314 314 315 315 316 317 317 316 315 313 311 309 307 306 306 307 308 309 309 309 310 310 310 310 310 311 312 312 312 312 311 308 306 304 303 302 301 299 299 299 300 301
313 313 313 313 313 313 313 314 315 315 314 314 315 315 316 316 316 317 317 317 317 316 316 315 315 314 313 312 312 312 313 314 314 315 315 314 312 310 308 306 306 306 306 308 308 309 309 310 310 310 310 310 311 312 312 312 310 308 305 303 301 301 300 299 297 296 295 296 298
312 312 313 313 312 312 312 313 313 313 313 313 314 314 314 314 315 315 315 315 315 314 314 313 313 313 312 312 312 312 312 312 312 313 313 313 312 310 308 306 305 305 305 306 308 308 309 309 309 309 310 310 311 312 312 311 308 304 302 301 300 299 299 298 297 294 292 291 294
311 311 312 311 311 311 311 311 311 312 311 312 312 313 313 313 313 314 314 314 314 313 313 312 312 311 311 311 311 311 311 311 311 311 311 312 311 310 308 306 305 304 304 306 306 308 308 309 309 309 310 310 311 311 310 308 305 303 301 299 298 298 297 297 297 294 292 290 293
310 311 311 310 310 310 310 310 310 310 310 311 311 312 312 312 313 313 312 312 312 312 312 311 311 311 311 311 310 310 310 310 309 309 309 310 310 309 308 306 304 304 304 304 306 307 308 309 309 309 310 310 310 308 307 305 303 301 299 298 297 296 296 296 295 295 294 293 297
310 310 310 309 309 309 309 309 309 309 310 310 311 311 311 311 311 312 312 312 312 312 311 311 311 310 310 309 309 309 308 308 307 307 307 307 307 307 307 306 304 304 303 304 305 306 307 309 309 309 309 310 309 307 305 303 301 300 299 297 296 296 295 295 294 294 294 295 298
309 309 309 309 309 309 309 308 309 309 310 310 310 310 310 310 311 311 311 312 312 312 311 311 310 310 310 309 308 307 307 306 306 306 305 304 304 304 304 304 304 303 303 303 304 306 307 308 309 309 309 308 308 306 304 302 301 300 299 298 297 296 295 294 294 293 293 293 296
308 308 308 308 308 309 308 308 309 309 309 309 310 310 310 310 310 311 311 311 311 311 311 311 310 310 309 308 307 306 305 305 304 303 303 302 302 302 302 302 302 303 303 303 304 306 307 308 308 308 308 308 307 306 304 302 301 299 299 298 297 296 295 294 294 293 293 293 293
Wind_Speed
7 6 6 6 6 5 5 4 5 5 5 5 5 5 5 5 5 5 4 4 4 4 4 5 5 5 5 7 8 8 8 8 8 8 8 8 8 8 8 8 7 7 7 7 7 6 6 6 5 5 4 4 4 4 4 4 4 5 5 5 5 5 6 7 7 8 8 8 7
7 7 6 6 6 5 4 4 4 5 5 4 5 5 5 4 4 4 5 5 4 4 4 4 5 5 6 7 8 8 8 8 8 8 8 8 9 9 8 8 8 8 7 7 7 6 6 6 5 5 4 4 4 4 5 5 5 5 6 7 5 5 5 6 7 8 8 8 7
7 6 6 6 6 5 4 4 4 5 5 4 4 4 4 4 4 4 4 4 4 4 4 4 5 6 7 7 7 7 8 8 8 8 8 8 8 9 8 8 8 8 8 7 7 6 6 6 5 5 4 4 5 5 5 5 5 5 6 7 5 5 5 6 6 6 6 6 7
7 6 6 6 7 6 5 4 4 5 5 5 4 4 4 4 3 3 4 4 4 4 4 4 4 5 6 7 7 7 7 8 8 8 8 8 8 8 8 8 8 8 8 7 7 7 7 6 5 5 4 5 6 6 5 5 5 5 5 5 5 5 5 5 5 5 5 5 6
7 7 6 6 7 7 6 5 5 5 4 4 4 4 4 3 3 3 3 4 4 4 4 4 4 5 5 6 7 8 8 8 8 8 8 8 8 8 8 8 8 8 7 7 7 7 7 7 5 5 5 5 5 5 5 5 5 5 5 4 4 5 5 5 5 4 4 5 5
7 7 7 7 7 6 5 5 5 5 4 4 4 5 4 4 3 3 3 3 3 4 4 4 4 4 5 6 7 7 8 8 8 8 8 8 8 8 8 8 8 8 7 7 8 8 7 7 5 5 5 5 5 5 5 6 6 5 5 5 5 4 4 5 4 4 4 5 5
7 7 8 8 8 7 6 5 5 5 5 4 5 5 5 5 4 4 4 4 3 3 3 3 3 3 4 5 6 7 7 7 7 7 8 7 7 8 8 8 8 8 8 8 8 8 7 7 5 5 5 4 4 5 6 6 6 6 6 5 5 4 4 5 4 4 5 6 7
6 7 7 8 8 8 7 7 6 5 5 4 5 6 6 6 6 5 5 4 3 3 3 3 4 4 4 5 5 6 6 7 7 7 7 7 7 8 8 8 8 8 8 8 8 8 7 6 5 5 5 4 4 5 5 6 6 6 6 6 5 4 4 5 5 5 5 7 8
5 6 7 8 8 8 7 7 6 6 5 5 6 6 6 6 6 6 5 4 3 3 3 3 4 4 4 4 5 5 6 7 7 7 7 7 7 7 7 7 7 8 8 8 8 8 8 6 5 5 5 4 4 5 5 6 7 7 7 6 5 5 5 5 5 6 6 7 8
5 5 5 6 7 7 7 6 6 6 6 6 6 6 6 6 6 5 4 4 3 3 3 4 4 5 5 5 5 5 5 6 6 7 7 7 7 7 7 7 7 7 7 7 7 8 8 6 6 6 5 5 5 5 6 6 7 7 7 5 5 6 6 6 7 7 7 8 8
4 4 4 4 5 6 6 5 5 5 5 5 5 5 5 5 5 5 4 4 3 4 4 4 5 5 5 5 5 5 5 5 5 6 6 7 7 7 7 7 7 7 7 7 6 6 6 6 6 7 7 6 6 6 6 7 7 8 8 6 6 7 7 7 8 8 8 8 8
4 4 4 4 5 5 5 4 4 4 4 4 4 4 4 5 4 4 4 4 4 4 4 4 5 5 5 5 5 5 5 5 5 5 6 6 6 7 7 7 7 7 7 7 6 6 6 6 7 7 7 7 6 6 6 7 8 8 8 8 8 8 8 8 9 8 8 8 8
3 3 3 4 5 5 4 4 3 3 3 3 3 3 3 4 4 4 5 5 5 4 4 4 5 5 5 5 5 5 5 5 5 5 5 5 6 6 6 7 7 7 7 6 6 6 6 6 7 8 8 8 7 7 7 8 8 8 9 9 9 9 9 9 9 9 8 8 8
3 3 3 4 4 4 4 4 3 3 3 3 3 3 3 3 3 4 4 5 5 4 4 4 4 4 4 5 4 5 5 5 5 5 5 5 5 6 6 6 6 7 6 6 6 6 6 7 7 8 8 8 8 8 8 8 8 9 9 9 9 9 9 9 9 9 8 8 8
3 3 3 3 3 4 4 3 3 3 3 3 3 2 2 2 3 3 4 4 5 5 4 4 4 4 4 5 5 5 5 5 5 5 5 6 6 6 6 6 7 7 6 6 6 7 7 7 8 8 8 8 8 8 8 8 8 9 9 9 9 9 9 9 9 8 8 8 8
4 3 3 3 3 3 3 3 3 2 3 3 3 3 3 3 3 3 3 4 4 4 4 4 4 4 4 5 5 5 5 5 5 5 5 6 6 6 6 6 7 7 7 7 7 7 7 7 7 8 8 8 8 8 8 8 8 8 8 8 9 9 9 8 8 8 8 8 7
4 4 4 3 4 4 3 3 3 3 3 3 3 3 3 3 3 3 3 4 4 4 4 5 5 4 4 5 5 5 5 5 5 5 5 6 6 6 6 7 7 7 7 8 8 8 8 7 7 7 8 8 8 8 8 8 8 8 8 8 8 7 7 7 7 7 7 7 7
4 4 4 4 4 4 4 3 3 3 3 3 3 3 3 3 3 3 3 4 4 5 5 5 5 5 5 5 5 5 5 5 5 5 5 6 6 6 6 6 6 7 7 7 7 8 8 8 7 7 7 7 7 7 7 7 7 7 7 6 6 6 6 6 6 6 6 6 6
4 4 4 4 4 4 4 4 4 3 3 3 3 3 3 3 3 3 3 3 4 4 4 4 4 4 4 4 4 4 5 5 6 6 6 6 6 6 6 6 6 6 6 6 6 7 7 7 7 6 6 6 6 6 6 6 6 6 5 5 5 5 5 6 5 5 5 5 5
2 2 3 3 4 5 5 5 4 4 3 3 3 3 3 3 3 2 2 2 2 3 3 3 3 3 3 3 3 4 4 4 5 5 5 5 5 5 5 5 5 5 4 4 5 5 5 5 5 5 5 5 5 5 5 5 5 4 4 4 4 5 5 5 4 4 3 3 4
4 4 4 3 2 1 1 2 2 3 3 3 3 3 3 3 3 2 2 2 2 2 2 2 2 2 2 2 3 3 3 3 4 4 4 4 4 5 4 4 4 4 3 3 3 3 4 4 4 4 4 4 4 4 3 3 3 3 3 3 4 4 4 3 3 2 2 2 3
5 6 6 6 5 5 4 4 3 2 1 0 1 1 1 2 2 2 2 2 1 1 1 2 2 2 2 2 2 2 2 2 2 3 3 3 3 3 3 3 3 3 3 3 3 3 3 3 3 2 2 2 1 1 1 1 1 1 2 3 3 4 4 3 2 2 3 3 4
4 4 4 3 4 4 4 3 3 4 4 3 3 3 2 2 1 1 1 1 1 1 1 1 1 2 2 2 2 2 2 2 2 2 2 2 2 2 2 2 2 3 3 3 3 3 3 3 1 1 2 2 1 1 1 0 0 1 2 4 4 4 4 3 3 3 3 4 5
3 3 2 2 3 2 2 2 2 2 2 2 2 3 3 3 3 3 3 3 2 2 2 1 1 1 1 1 1 2 2 2 2 2 2 2 2 2 2 2 2 2 3 2 2 2 2 2 2 2 2 2 2 1 1 0 1 2 3 4 5 4 4 3 3 3 4 5 5
3 2 2 2 2 2 2 2 1 1 1 1 1 2 2 2 2 2 2 2 2 2 2 2 2 2 1 1 1 1 1 1 2 2 2 2 2 2 2 1 1 1 1 1 1 1 2 3 3 3 2 2 1 1 0 0 1 2 3 3 3 3 2 2 2 3 4 4 4
2 2 2 2 1 1 1 1 1 1 1 1 1 1 1 1 1 1 1 1 1 1 1 1 1 1 1 1 2 2 2 1 1 1 1 2 2 2 2 2 2 2 3 3 3 3 3 4 4 3 2 2 1 1 0 1 1 2 2 2 2 2 2 2 2 3 3 2 2
2 2 1 1 1 1 1 1 1 1 1 1 1 1 1 1 1 1 1 1 1 1 1 1 1 0 0 1 1 1 1 1 1 1 1 1 1 2 2 2 3 4 5 5 4 5 5 5 4 4 3 2 1 1 0 1 1 1 2 2 2 2 2 2 3 3 3 2 1
2 1 1 1 1 1 1 1 1 1 1 0 0 0 0 1 1 1 1 1 1 1 1 1 1 1 1 1 0 1 1 1 0 0 1 1 1 1 2 3 5 6 7 8 7 7 7 6 6 5 4 3 2 1 1 1 1 2 2 2 2 2 2 3 3 3 3 2 1
3 3 3 3 2 2 2 2 1 1 1 1 1 1 1 1 1 1 1 1 1 1 0 0 0 1 1 1 0 0 0 0 1 1 2 2 2 3 4 7 8 9 10 11 10 9 8 7 7 6 5 4 3 2 2 2 2 2 2 2 2 2 2 2 2 2 2 2 1
5 5 5 5 4 3 2 1 1 1 1 1 1 1 1 0 0 0 0 0 0 0 0 1 1 2 1 1 1 1 1 2 2 3 3 4 4 6 8 10 9 9 10 12 10 10 9 9 8 7 6 5 4 3 3 3 3 3 3 3 2 2 2 2 3 3 3 3 2
6 6 6 6 5 4 3 2 2 2 3 3 4 4 4 4 4 3 3 2 2 2 2 2 2 2 2 2 2 3 3 4 4 5 5 6 7 9 10 10 10 10 11 13 12 12 12 11 11 9 8 6 4 3 3 3 3 3 2 2 3 4 4 4 5 5 5 5 4
6 6 7 7 6 6 6 6 7 7 8 9 8 8 8 7 5 4 3 3 3 3 4 4 4 4 4 4 4 4 5 6 7 7 8 8 9 9 10 10 10 10 12 14 14 14 14 13 13 12 10 8 5 3 3 3 3 2 2 4 6 7 7 7 6 7 7 6 5
6 7 7 7 7 8 8 9 10 10 10 10 9 9 8 8 6 5 5 4 4 5 7 8 8 8 8 7 6 6 6 7 8 9 9 9 9 10 10 9 9 10 13 15 15 15 15 14 13 12 11 9 6 4 3 3 2 2 4 6 7 8 8 8 7 6 6 6 4
6 7 7 8 8 9 9 10 10 10 9 9 9 9 9 8 8 8 7 7 7 8 9 9 10 9 8 8 8 8 8 8 9 9 10 10 10 10 10 9 8 10 13 16 15 15 14 14 13 12 10 7 5 3 2 2 3 5 7 7 7 8 8 7 7 6 5 5 4
7 7 8 9 9 9 9 10 10 10 9 9 9 9 9 9 8 8 8 8 8 9 9 9 9 8 8 7 7 8 8 9 9 9 9 9 9 10 10 9 8 11 14 15 15 14 14 13 12 11 9 6 4 2 2 3 6 7 8 7 7 7 7 6 5 4 4 4 4
8 8 9 9 9 9 9 9 9 9 9 9 9 8 8 8 8 7 7 8 9 9 9 9 8 8 8 7 7 7 8 8 8 8 8 8 9 9 9 9 9 11 14 15 15 14 13 13 12 10 8 5 4 3 4 5 6 7 7 7 6 6 5 5 4 3 3 3 3
8 9 9 9 9 9 8 8 8 9 9 8 8 8 7 7 7 7 7 7 8 8 8 7 7 7 7 7 7 7 7 7 8 8 8 7 8 8 9 8 9 10 12 15 15 14 13 13 12 10 7 4 4 5 5 5 5 5 6 6 5 4 4 3 2 2 2 2 3
8 9 9 9 9 9 9 9 8 8 8 8 7 7 6 6 6 6 6 6 7 7 6 6 6 5 5 5 6 7 8 8 8 8 8 8 7 8 8 8 8 9 11 14 14 14 13 13 12 10 8 5 5 5 4 4 4 4 4 4 3 3 2 2 2 2 2 3 4
8 8 9 9 9 9 9 8 8 8 7 7 6 6 6 5 5 5 5 5 5 5 5 5 4 4 4 5 6 7 8 8 8 8 8 8 8 7 8 8 8 8 10 12 14 14 13 12 12 10 8 5 5 4 3 3 3 3 3 3 2 2 2 1 1 1 2 3 5
8 8 8 8 8 8 8 7 7 6 6 6 5 5 5 4 4 4 4 4 4 4 4 4 4 5 5 6 7 7 7 7 7 8 8 8 8 8 8 8 8 8 9 11 13 13 12 12 12 11 8 5 4 3 3 3 3 3 3 2 2 2 1 1 1 1 1 2 4
7 7 7 7 7 7 7 6 6 5 4 4 4 4 3 3 3 3 3 4 4 4 4 4 5 5 6 6 6 7 7 7 6 7 7 7 8 8 7 7 7 7 8 9 11 12 12 12 12 11 9 5 4 3 3 3 3 3 3 2 2 2 1 2 2 1 1 1 2
Wind_Direction
155 152 149 146 145 144 143 141 142 143 147 150 151 153 154 154 156 160 162 165 168 172 176 179 181 184 185 185 185 187 190 193 194 195 196 197 200 202 204 205 206 206 206 208 208 209 209 209 210 213 217 218 219 220 220 217 215 218 220 222 224 225 225 226 227 225 223 222 223
152 148 143 139 137 135 134 132 134 138 142 146 147 149 151 153 155 157 159 164 168 171 174 177 179 181 183 185 184 185 187 191 193 195 197 199 201 202 204 206 207 207 208 209 208 209 210 210 210 213 217 218 219 220 221 219 216 218 221 223 225 226 227 230 230 229 227 226 226
150 145 138 133 132 131 130 130 131 134 137 139 142 145 148 151 153 154 158 164 166 167 170 174 178 180 181 182 183 184 186 188 191 195 198 201 203 204 204 206 207 208 209 209 208 209 210 210 211 213 215 216 216 218 220 221 217 219 222 225 225 226 228 231 231 231 231 231 230
148 144 137 132 131 131 132 135 136 137 138 139 139 141 145 150 151 151 154 158 163 166 170 174 177 179 180 180 181 182 184 186 189 193 197 202 203 204 205 205 206 207 208 209 209 210 210 209 212 214 215 214 215 216 218 218 217 220 224 225 225 226 228 231 231 230 231 234 232
150 146 141 137 136 136 137 138 142 142 142 140 140 143 147 150 150 150 152 156 163 169 173 175 178 180 180 178 178 180 183 185 188 192 196 200 203 204 204 203 204 205 207 207 208 209 210 209 213 216 217 215 215 215 215 212 216 220 225 228 227 227 229 231 230 229 230 233 233
151 147 143 141 141 140 141 143 146 147 146 143 143 145 148 152 153 153 157 163 169 173 175 177 180 180 178 176 177 179 182 186 188 191 195 198 200 202 203 203 204 204 205 205 206 207 208 209 214 217 218 217 219 217 214 209 213 219 225 229 229 229 229 231 231 230 229 231 233
152 148 145 146 147 147 147 149 149 150 150 147 149 151 153 155 157 160 164 169 171 175 178 180 185 184 182 177 177 179 182 186 189 192 193 196 198 199 200 202 203 203 203 203 204 206 207 208 213 217 219 217 219 218 213 208 212 218 224 228 229 228 228 230 230 230 230 231 232
152 149 148 149 150 151 151 152 151 151 151 152 156 159 160 160 162 165 168 170 174 179 183 185 191 192 188 181 181 182 184 186 190 192 194 196 197 198 200 201 202 203 203 202 202 203 206 208 212 216 218 217 219 217 214 210 212 217 223 228 230 228 227 230 230 229 230 230 232
150 149 147 148 149 151 152 153 151 151 152 156 161 164 166 165 166 168 170 173 179 183 186 190 195 196 195 192 189 188 188 188 191 193 195 197 198 200 201 202 203 204 205 203 203 203 204 208 212 215 216 216 217 216 214 211 214 219 223 228 230 230 229 230 228 227 228 229 231
139 140 139 139 143 145 147 148 148 148 150 155 162 165 167 167 168 170 173 176 179 184 189 193 195 197 199 200 199 198 195 193 193 194 195 197 199 202 203 205 205 206 207 206 205 203 204 208 212 216 217 217 215 215 214 212 216 220 224 228 229 231 233 232 229 228 227 227 229
121 124 126 129 134 136 138 139 142 145 148 154 160 164 165 166 170 173 175 175 180 188 194 195 195 196 198 201 203 204 203 201 199 197 196 198 200 203 205 207 208 209 209 209 206 205 206 210 213 216 217 217 216 215 215 214 217 221 225 229 229 231 233 234 232 231 229 227 228
109 113 117 122 127 128 129 132 137 142 146 153 160 163 165 167 171 174 177 179 186 193 198 197 194 194 196 199 202 205 207 207 205 204 202 202 203 205 206 209 210 211 212 211 208 207 209 211 213 215 216 217 216 216 216 215 217 221 225 229 229 231 234 236 235 235 233 229 228
111 113 117 121 124 125 127 132 137 143 149 156 165 169 170 173 174 177 179 184 192 198 202 200 195 193 194 197 200 203 206 209 210 210 210 209 208 208 209 211 213 214 215 216 212 211 211 213 213 214 215 216 217 217 215 214 217 221 225 228 230 232 234 236 236 237 236 233 231
119 121 122 123 124 125 128 133 138 145 152 162 171 178 181 183 182 182 183 189 195 200 204 205 199 196 196 198 200 203 206 209 210 213 215 216 214 212 212 214 214 215 217 219 218 216 216 216 215 215 215 217 218 217 216 215 217 220 223 226 229 233 235 237 236 236 235 235 234
129 128 127 124 124 126 130 134 139 145 154 165 176 185 191 197 195 192 192 195 199 202 204 205 204 201 200 199 202 205 207 210 212 214 216 219 218 217 215 215 215 216 217 219 220 220 220 220 219 217 217 218 219 219 218 217 219 220 223 225 228 233 236 238 236 234 233 232 234
139 137 133 128 129 130 133 138 142 150 159 170 182 190 197 204 204 202 201 203 204 204 205 206 206 204 201 200 202 204 208 211 214 216 218 221 221 220 219 217 216 215 216 217 219 221 222 222 221 220 219 220 221 221 221 221 222 223 225 226 230 234 238 240 238 234 230 227 229
144 143 141 138 138 141 143 147 151 160 168 180 189 195 201 204 207 207 206 206 206 206 207 208 206 204 202 201 201 202 205 210 215 218 220 223 223 223 222 220 219 217 215 215 217 220 221 222 222 221 221 221 222 223 223 223 225 226 228 230 233 237 241 244 243 238 231 224 224
145 147 148 148 150 153 155 157 163 171 178 186 193 197 201 203 206 208 208 205 203 204 207 209 208 205 201 200 199 198 200 206 212 217 221 223 225 226 226 225 223 220 217 216 217 219 220 221 221 221 221 221 222 222 222 222 225 228 231 234 237 241 245 250 251 246 237 225 221
137 146 152 157 160 163 165 169 175 181 187 192 194 197 200 203 205 208 209 206 201 200 203 208 209 207 203 200 198 196 197 200 207 213 219 223 226 228 230 230 230 227 224 221 220 220 221 221 221 221 221 222 222 222 222 222 224 227 231 235 240 245 249 253 255 253 245 229 220
81 112 137 152 162 168 172 176 181 186 192 196 199 202 204 206 208 213 217 219 208 200 199 204 210 213 213 209 205 202 199 198 203 209 215 221 225 228 231 233 236 235 233 229 228 226 225 225 224 224 223 224 225 224 223 221 222 225 230 235 241 245 249 252 255 256 250 235 224
30 34 38 41 57 94 135 160 176 185 191 195 199 202 204 205 208 214 220 226 221 212 207 211 216 224 228 229 226 222 216 207 205 209 214 218 223 227 231 233 237 242 243 243 240 238 235 233 230 229 227 227 226 224 221 217 221 228 235 241 245 249 251 253 257 259 255 246 236
33 33 32 30 28 25 22 17 13 7 359 238 217 212 209 205 208 211 215 218 218 219 221 223 225 229 234 239 241 243 241 236 226 222 220 221 226 229 231 232 239 246 251 252 249 246 243 240 234 223 211 205 207 204 199 195 221 243 256 262 264 267 269 267 260 253 247 242 239
41 39 38 36 35 34 30 23 17 13 9 6 3 360 357 353 343 337 335 337 319 276 252 240 233 234 237 239 243 248 255 262 260 256 249 239 240 241 242 241 244 249 251 249 244 240 237 233 215 165 134 129 130 126 118 115 293 288 286 284 284 284 281 274 259 245 238 235 236
45 41 37 34 35 37 39 36 31 23 16 9 4 3 1 358 358 358 358 356 351 344 332 319 304 283 272 268 264 263 264 269 274 277 278 274 266 262 261 261 256 252 250 251 245 225 201 175 145 123 114 115 115 110 98 45 306 292 288 287 286 284 280 271 254 240 234 234 235
49 45 41 37 34 34 36 37 37 30 22 12 10 7 3 358 358 358 355 350 343 339 333 329 328 330 332 330 322 316 305 293 289 293 298 302 303 304 304 305 292 294 337 32 44 82 114 121 120 118 116 112 107 99 76 309 283 280 280 281 281 280 279 272 256 243 236 235 239
51 48 46 42 42 41 43 44 42 34 28 19 18 11 360 349 354 353 346 328 313 308 309 313 320 329 341 349 343 341 336 329 321 318 317 320 328 335 343 346 1 28 40 41 47 66 82 89 96 101 107 109 104 96 16 292 282 284 289 293 293 287 278 271 264 259 254 252 257
53 53 57 68 73 75 75 72 66 58 47 36 28 12 355 353 356 353 338 301 280 273 269 269 269 286 349 17 353 337 326 322 327 335 341 350 355 356 1 10 33 39 38 31 41 49 56 59 62 66 70 77 79 73 357 299 302 312 318 321 313 298 285 278 278 281 286 292 313
42 45 67 95 97 97 97 97 98 102 108 113 116 93 34 8 349 332 310 287 276 269 255 238 210 159 116 86 217 269 273 286 315 14 45 51 45 40 40 45 49 40 29 19 29 36 39 37 34 31 29 28 26 21 359 332 327 330 331 329 324 316 307 299 298 299 302 304 335
25 25 33 53 65 72 78 84 93 106 124 141 147 154 162 198 230 243 252 256 253 245 229 219 128 93 93 116 169 202 210 55 71 67 61 56 52 53 56 58 55 41 25 16 24 29 31 27 21 15 10 8 8 5 360 353 350 348 345 340 336 330 321 313 313 313 316 321 360
28 28 31 37 41 44 50 64 88 112 130 141 135 136 140 146 163 183 194 33 40 61 73 66 57 58 63 83 75 60 51 44 49 51 53 50 53 58 59 59 53 37 22 15 21 26 28 26 20 13 6 2 3 2 360 357 354 351 346 342 343 344 345 345 350 355 1 10 29
34 33 32 30 28 25 23 28 39 45 46 45 45 45 43 41 39 39 37 36 37 37 42 51 53 51 47 50 54 53 50 46 44 44 46 50 58 62 62 58 47 33 21 16 21 25 27 26 21 16 11 6 5 3 360 355 350 346 347 355 12 19 22 22 22 23 25 29 32
37 36 33 28 24 22 25 34 40 42 42 42 40 39 37 34 32 29 25 22 26 30 33 39 42 39 35 34 42 49 54 53 51 49 49 52 59 63 62 55 43 30 20 18 23 25 25 24 21 17 14 9 7 4 360 352 347 352 15 38 43 43 40 37 33 30 29 31 32
38 39 36 31 27 27 33 40 44 45 45 43 40 37 33 28 24 21 20 22 30 36 40 42 42 40 37 34 37 43 50 55 54 52 53 56 60 61 59 54 42 28 22 22 24 24 23 21 19 16 12 8 6 1 355 349 360 29 49 55 53 51 49 45 39 32 28 27 28
37 43 43 39 34 33 36 42 44 46 45 44 40 36 32 28 26 25 26 31 39 45 46 47 46 44 41 37 38 41 46 51 52 54 56 61 63 63 60 54 42 28 24 25 25 24 22 20 17 13 8 3 359 352 351 4 39 56 61 60 56 53 51 48 41 33 23 17 17
34 44 50 48 43 39 40 42 45 46 46 45 42 39 35 31 29 29 32 38 45 49 50 49 49 48 45 41 40 42 45 50 52 54 58 63 67 67 63 56 44 31 26 26 26 24 22 20 16 10 3 355 349 349 14 46 61 64 64 62 57 54 51 48 41 32 19 10 10
31 42 51 53 49 46 43 44 47 48 48 47 44 41 37 35 32 33 36 44 50 52 52 51 51 51 49 46 43 44 46 50 52 54 57 63 67 68 66 58 45 33 27 26 25 24 22 21 17 11 5 358 2 20 42 59 66 68 67 64 60 56 52 49 42 29 15 5 7
31 40 49 54 52 49 46 45 47 48 47 46 43 41 39 38 37 37 40 47 54 56 56 56 56 55 54 53 51 50 50 52 54 53 54 56 64 68 68 61 48 36 28 24 23 23 22 22 19 16 14 16 30 42 53 63 68 69 68 66 63 59 54 49 41 28 14 5 7
33 40 47 53 52 50 47 44 44 44 44 43 41 40 40 41 41 41 42 47 54 57 58 58 59 60 62 63 61 58 55 55 55 54 53 52 59 66 69 65 53 40 29 23 22 22 22 23 23 22 23 37 48 56 63 69 71 71 71 70 67 61 53 43 35 23 12 5 8
35 40 47 53 54 52 49 45 43 41 41 41 40 39 38 40 43 43 45 48 54 57 59 59 59 63 68 71 69 64 59 56 56 56 55 52 52 57 62 64 55 44 32 24 22 22 23 25 26 26 28 41 52 61 69 75 76 76 76 77 74 64 48 31 24 16 10 5 7
37 41 47 54 58 58 56 52 47 43 40 42 43 41 39 41 44 47 49 51 54 56 58 59 58 60 65 69 71 67 63 57 57 58 58 55 51 50 52 57 53 45 34 26 23 23 25 28 30 30 31 38 46 56 66 75 79 78 76 74 68 53 31 4 360 360 4 358 3
39 40 45 51 57 61 62 61 55 49 44 46 47 45 42 43 48 51 54 56 55 57 59 61 61 62 65 69 72 71 67 61 59 61 63 62 57 53 51 52 50 44 36 28 25 26 28 32 35 35 34 36 39 45 54 65 72 70 65 59 53 41 20 353 347 346 349 347 348